User: anonymous   Login
Location: Noordwijk
(52.2400°N, 4.4500°E)
Time: 10:07:43
(UTC+00:00)
Language:

DOVE 4 - Orbit

View from above orbital plane
View from above orbital plane
View from above satellite
View from above satellite

Ground track
Ground track

The orbit data is extracted from the following two-line orbital elements,

1 39430U 13066Q   22333.71561825  .00001271  00000-0  23340-3 0  9999
2 39430  97.7962 231.3900 0146779 243.5257 115.0831 14.60672925480419
Epoch (UTC): 29 November 2022 17:10:29
Eccentricity: 0.0146779
inclination: 97.7962°
perigee height: 587 km
apogee height: 795 km
right ascension of ascending node: 231.3900°
argument of perigee: 243.5257°
revolutions per day: 14.60672925
mean anomaly at epoch: 115.0831°
orbit number at epoch: 48041

The dashed part of the orbit path shows where the satellite is in the earth's shadow,  

DLR